SPAWM EPSY-EPOD

Flight info

Callsign SPAWM
Flight time 0h 8m
Altitude 2000
Route VFR CIRCUITS AT EPOD
Aircraft C172/L-VGD/A

Departure

Time 2026-05-05 12:46
Airport Olsztyn-Mazury Airport (EPSY)

Arrival

Time 2026-05-05 12:55
Airport Olsztyn-Dajtki Airfield (EPOD)
Time Latitude Longitude Altitude Speed Heading
2026-05-05 12:34 53.48770 20.94541 466 ft 0 kts 108°
2026-05-05 12:38 53.48771 20.94543 466 ft 0 kts 23°
2026-05-05 12:38 53.48773 20.94541 466 ft 0 kts 283°
2026-05-05 12:39 53.48774 20.94523 466 ft 3 kts 278°
2026-05-05 12:39 53.48779 20.94488 466 ft 0 kts 286°
2026-05-05 12:39 53.48783 20.94465 466 ft 3 kts 289°
2026-05-05 12:39 53.48790 20.94442 466 ft 0 kts 326°
2026-05-05 12:40 53.48804 20.94422 466 ft 4 kts 305°
2026-05-05 12:40 53.48806 20.94411 466 ft 2 kts 256°
2026-05-05 12:40 53.48772 20.94358 466 ft 5 kts 270°
2026-05-05 12:40 53.48776 20.94324 466 ft 0 kts 288°
2026-05-05 12:41 53.48782 20.94296 466 ft 5 kts 289°
2026-05-05 12:41 53.48797 20.94225 466 ft 7 kts 290°
2026-05-05 12:42 53.48819 20.94146 466 ft 6 kts 317°
2026-05-05 12:42 53.48844 20.94140 466 ft 3 kts
2026-05-05 12:42 53.48867 20.94151 466 ft 3 kts 19°
2026-05-05 12:42 53.48891 20.94165 466 ft 4 kts 19°
2026-05-05 12:43 53.48950 20.94195 466 ft 13 kts 16°
2026-05-05 12:43 53.48999 20.94223 466 ft 17 kts 21°
2026-05-05 12:43 53.49027 20.94236 466 ft 11 kts 13°
2026-05-05 12:43 53.49099 20.94276 466 ft 9 kts 20°
2026-05-05 12:44 53.49159 20.94313 466 ft 8 kts 19°
2026-05-05 12:44 53.49216 20.94345 466 ft 9 kts 20°
2026-05-05 12:44 53.49234 20.94363 466 ft 0 kts 307°
2026-05-05 12:44 53.49231 20.94354 466 ft 1 kts 207°
2026-05-05 12:45 53.49223 20.94350 466 ft 0 kts 199°
2026-05-05 12:45 53.49220 20.94348 466 ft 5 kts 199°
2026-05-05 12:45 53.49019 20.94241 466 ft 52 kts 198°
2026-05-05 12:45 53.48594 20.93930 495 ft 76 kts 190°
2026-05-05 12:46 53.48090 20.93549 593 ft 80 kts 193°
2026-05-05 12:46 53.47586 20.93257 657 ft 77 kts 173°
2026-05-05 12:46 53.47068 20.92788 816 ft 90 kts 206°
2026-05-05 12:46 53.46671 20.91921 1134 ft 99 kts 261°
2026-05-05 12:47 53.46960 20.91003 1254 ft 84 kts
2026-05-05 12:47 53.47593 20.90961 1245 ft 100 kts 10°
2026-05-05 12:47 53.48296 20.90876 1403 ft 101 kts 11°
2026-05-05 12:47 53.49000 20.90855 1503 ft 106 kts 13°
2026-05-05 12:48 53.49780 20.90874 1514 ft 115 kts 13°
2026-05-05 12:48 53.50584 20.90823 1583 ft 120 kts
2026-05-05 12:48 53.51453 20.90604 1574 ft 131 kts 358°
2026-05-05 12:48 53.52332 20.90095 1519 ft 135 kts 347°
2026-05-05 12:49 53.53173 20.89413 1526 ft 132 kts 340°
2026-05-05 12:49 53.53941 20.88521 1425 ft 140 kts 328°
2026-05-05 12:49 53.54619 20.87319 1453 ft 137 kts 317°
2026-05-05 12:49 53.55190 20.86106 1426 ft 132 kts 314°
2026-05-05 12:50 53.55725 20.84883 1351 ft 129 kts 312°
2026-05-05 12:50 53.56242 20.83685 1338 ft 118 kts 315°
2026-05-05 12:50 53.56539 20.82407 1389 ft 121 kts 287°
2026-05-05 12:50 53.56835 20.81116 1374 ft 114 kts 309°
2026-05-05 12:51 53.57316 20.80140 1339 ft 110 kts 322°
2026-05-05 12:51 53.57846 20.79220 1375 ft 110 kts 324°
2026-05-05 12:51 53.58401 20.78289 1291 ft 112 kts 325°
2026-05-05 12:51 53.59249 20.76856 1227 ft 113 kts 324°
2026-05-05 12:52 53.59797 20.75924 1295 ft 110 kts 325°
2026-05-05 12:52 53.60319 20.75056 1445 ft 113 kts 307°
2026-05-05 12:52 53.64040 20.69334 1518 ft 128 kts 339°
2026-05-05 12:52 53.74133 20.56241 1712 ft 143 kts 319°
2026-05-05 12:53 53.76423 20.50295 1665 ft 149 kts 317°
2026-05-05 12:53 53.76825 20.48822 1611 ft 133 kts 278°
2026-05-05 12:53 53.76928 20.47310 1528 ft 127 kts 277°
2026-05-05 12:53 53.77028 20.45895 1301 ft 122 kts 278°
2026-05-05 12:54 53.77290 20.43622 840 ft 91 kts 273°
2026-05-05 12:54 53.77333 20.42569 597 ft 89 kts 270°
2026-05-05 12:54 53.77380 20.41578 435 ft 71 kts 275°
2026-05-05 12:55 53.77399 20.41184 437 ft 7 kts 274°
2026-05-05 12:55 53.77401 20.41101 437 ft 9 kts 272°
2026-05-05 12:55 53.77401 20.41059 437 ft 0 kts 268°
2026-05-05 12:55 53.77401 20.41048 437 ft 0 kts 309°
2026-05-05 12:56 53.77403 20.41053 437 ft 0 kts 113°
2026-05-05 12:56 53.77398 20.41050 437 ft 2 kts 209°
2026-05-05 12:56 53.77370 20.41017 437 ft 5 kts 219°
2026-05-05 12:56 53.77361 20.41004 437 ft 0 kts 222°
2026-05-05 12:57 53.77357 20.40998 437 ft 0 kts 226°
2026-05-05 12:57 53.77354 20.40993 437 ft 1 kts 228°
2026-05-05 12:57 53.77342 20.40966 437 ft 5 kts 231°
2026-05-05 12:58 53.77313 20.40911 436 ft 5 kts 226°
2026-05-05 12:58 53.77292 20.40893 436 ft 3 kts 198°
2026-05-05 12:58 53.77262 20.40869 436 ft 5 kts 255°
2026-05-05 12:58 53.77250 20.40903 436 ft 23 kts 95°
2026-05-05 12:59 53.77216 20.41403 442 ft 57 kts 97°
2026-05-05 12:59 53.77163 20.42088 593 ft 58 kts 98°
2026-05-05 12:59 53.77107 20.42717 779 ft 53 kts 97°
2026-05-05 13:00 53.77092 20.44023 1037 ft 61 kts 65°
2026-05-05 13:00 53.77564 20.44251 1182 ft 83 kts 12°
2026-05-05 13:01 53.78910 20.40552 1536 ft 121 kts 289°
2026-05-05 13:01 53.79077 20.39187 1476 ft 109 kts 262°
2026-05-05 13:01 53.78845 20.38189 1386 ft 75 kts 217°
2026-05-05 13:01 53.78499 20.37890 1284 ft 50 kts 145°
2026-05-05 13:02 53.78138 20.38027 1233 ft 52 kts 134°
2026-05-05 13:02 53.77769 20.38201 1060 ft 44 kts 131°
2026-05-05 13:02 53.77571 20.38542 932 ft 40 kts 113°
2026-05-05 13:02 53.77486 20.38957 871 ft 39 kts 96°
2026-05-05 13:03 53.77468 20.39429 813 ft 40 kts 92°
2026-05-05 13:03 53.77441 20.39878 671 ft 37 kts 96°
2026-05-05 13:03 53.77430 20.40333 584 ft 43 kts 93°
2026-05-05 13:03 53.77414 20.40759 438 ft 21 kts 95°